Home   Weather   Lucerne   Past weeks

Flag for Switzerland Past Weather in Lucerne, Lucerne, Switzerland — Yesterday and Last 2 Weeks

Now
80 °F

Warm.


Feels Like: 81 °F
Forecast: 61 / 85 °F
Wind: 2 mph from Southeast

Location: Giswil

Current Time: May 27, 2017 at 7:32:23 pm

Latest Report: May 27, 2017 at 6:00 pm


Visibility: N/A

Pressure: 30.00 "Hg

Humidity: 52%

Dew Point: 60 °F

Location of LucerneLocation

Past Weather in Lucerne — Graph

°F

Lucerne Temperature Yesterday

Maximum temperature yesterday: 78 °F (at 5:00 pm)
Minimum temperature yesterday: 44 °F (at 5:00 am)
Average temperature yesterday: 61 °F

High & Low Weather Summary for the Past Weeks

 TemperatureHumidityPressure
High83 °F (May 27, 4:00 pm)100% (May 12, 9:00 pm)30.46 "Hg (May 12, 9:00 pm)
Low35 °F (May 20, 6:00 am)36% (May 16, 4:00 pm)29.73 "Hg (May 12, 6:00 pm)
Average59 °F78%30.13 "Hg
* Reported May 12 6:00 pm — May 27 6:00 pm, Lucerne. Weather by CustomWeather, © 2017

Note: Actual official high and low records may vary slightly from our data, if they occured in-between our weather recording intervals... More about our weather records

Advertising

Lucerne Weather History for the Previous 24 Hours

Scroll right to see more
 ConditionsComfort  
Time TempWeatherWind HumidityBarometerVisibility
6:00 pm
Sat, May 27
80 °FWarm.2 mph52%30.00 "HgN/A
5:00 pm82 °FWarm.3 mph43%29.99 "HgN/A
4:00 pm83 °FWarm.3 mph42%29.99 "HgN/A
3:00 pm81 °FWarm.2 mph42%30.01 "HgN/A
2:00 pm79 °FWarm.2 mph44%30.04 "HgN/A
1:00 pm77 °FMild.2 mph47%30.06 "HgN/A
12:00 pm74 °FMild.2 mph49%30.08 "HgN/A
11:00 am70 °FMild.2 mph51%30.10 "HgN/A
10:00 am65 °FMild.No wind63%30.13 "HgN/A
9:00 am61 °FCool.No wind85%30.14 "HgN/A
8:00 am60 °FCool.No wind84%30.12 "HgN/A
7:00 am54 °FCool.1 mph98%30.14 "HgN/A
6:00 am49 °FCool.2 mph99%30.14 "HgN/A
5:00 am49 °FCool.1 mph99%30.12 "HgN/A
4:00 am49 °FCool.2 mph99%30.11 "HgN/A
3:00 am51 °FCool.1 mph99%30.10 "HgN/A
2:00 am52 °FCool.1 mph95%30.09 "HgN/A
1:00 am52 °FCool.1 mph96%30.11 "HgN/A
12:00 am56 °FCool.2 mph88%30.09 "HgN/A
11:00 pm
Fri, May 26
59 °FCool.3 mph78%30.07 "HgN/A
10:00 pm61 °FCool.3 mph80%30.05 "HgN/A
9:00 pm62 °FCool.2 mph82%30.03 "HgN/A
8:00 pm72 °FMild.2 mph62%29.98 "HgN/A
7:00 pm77 °FMild.3 mph44%29.96 "HgN/A
Weather by CustomWeather, © 2017

See weather overviewHow to use our weather pages